1511953200.9,39481,5.56,72238.8,-6.17,-30.95,-29.79,0,*5D
1511953202.13,39482,5.56,72238.3,-6.17,-31.11,-30.11,0,*55
1511953203.33,39483,5.56,72240.3,-6.17,-31.17,-30.11,0,*52
1511953204.63,39484,5.56,72242.3,-6.19,-31.23,-30.17,0,*5A
1511953205.84,39485,5.56,72236.5,-6.17,-31.17,-30.11,0,*54
1511953207.07,39486,5.56,72236.3,-6.19,-31.01,-29.95,0,*5A
1511953208.3,39487,5.56,72236.8,-6.17,-30.67,-29.73,0,*5C
1511953209.57,39488,5.56,72238.5,-6.19,-30.73,-29.83,0,*57
1511953210.83,39489,5.56,72242.5,-6.19,-30.89,-29.95,0,*54
1511953212.09,39490,5.56,72238.5,-6.19,-31.01,-30.01,0,*58
1511953213.32,39491,5.56,72238.5,-6.19,-31.01,-29.95,0,*5C
1511953214.59,39492,5.56,72242.0,-6.19,-31.05,-30.17,0,*59
1511953215.85,39493,5.56,72240.0,-6.19,-30.83,-30.01,0,*50
1511953217.06,39494,5.56,72240.3,-6.21,-31.17,-30.27,0,*54
1511953218.27,39495,5.56,72234.8,-6.21,-31.05,-30.33,0,*53
1511953219.56,39496,5.56,72232.3,-6.23,-30.61,-30.17,0,*57
1511953220.82,39497,5.56,72230.8,-6.25,-30.73,-30.17,0,*53
1511953222.07,39498,5.56,72230.0,-6.25,-30.89,-30.33,0,*5F
1511953223.32,39499,5.56,72234.0,-6.23,-30.61,-30.23,0,*5F
1511953224.56,39500,5.56,72238.5,-6.25,-30.61,-30.33,0,*59
1511953225.79,39501,5.56,72232.8,-6.29,-30.67,-30.45,0,*53
1511953227.07,39502,5.56,72230.0,-6.29,-30.61,-30.61,0,*50
1511953228.34,39503,5.56,72230.5,-6.25,-30.73,-30.61,0,*5E
1511953229.6,39504,5.56,72230.3,-6.29,-30.77,-30.67,0,*57
1511953230.83,39505,5.56,72230.8,-6.31,-30.67,-30.51,0,*5B
1511953232.09,39506,5.56,72230.0,-6.33,-30.51,-30.33,0,*5B
1511953233.34,39507,5.56,72224.5,-6.31,-30.39,-30.39,0,*5C
1511953234.55,39508,5.56,72222.3,-6.31,-30.83,-30.67,0,*59
1511953235.78,39509,5.56,72218.8,-6.33,-31.05,-31.01,0,*54
1511953236.99,39510,5.56,72220.0,-6.35,-31.33,-31.17,0,*58
1511953238.25,39511,5.56,72218.0,-6.37,-31.29,-31.11,0,*56
1511953239.47,39512,5.56,72216.8,-6.37,-31.29,-31.05,0,*50
1511953240.7,39513,5.56,72214.3,-6.37,-31.29,-31.05,0,*51
1511953241.99,39514,5.56,72218.3,-6.41,-31.85,-31.51,0,*50
1511953243.25,39515,5.56,72218.5,-6.41,-31.61,-31.29,0,*54
1511953244.49,39516,5.56,72228.3,-6.41,-31.29,-30.83,0,*5A
1511953245.77,39517,5.56,72238.5,-6.45,-30.89,-30.51,0,*5B
1511953246.98,39518,5.56,72236.3,-6.43,-30.67,-30.11,0,*56
1511953248.22,39519,5.56,72232.3,-6.43,-30.83,-30.17,0,*5B
1511953249.45,39520,5.56,72236.3,-6.45,-30.67,-30.11,0,*5B
1511953250.67,39521,5.56,72238.3,-6.45,-30.45,-29.79,0,*5C
1511953251.89,39522,5.56,72242.5,-6.45,-30.45,-29.79,0,*5F
1511953253.11,39523,5.56,72240.0,-6.43,-30.33,-29.39,0,*5D
1511953254.34,39524,5.56,72244.0,-6.47,-30.27,-29.39,0,*5B
1511953255.55,39525,5.56,72246.0,-6.47,-30.27,-29.23,0,*51
1511953256.77,39526,5.56,72248.3,-6.47,-30.11,-29.13,0,*54
1511953257.97,39527,5.56,72248.0,-6.47,-29.95,-29.07,0,*54
1511953259.21,39528,5.56,72242.3,-6.47,-29.95,-28.91,0,*55
1511953260.46,39529,5.56,72246.8,-6.47,-30.51,-29.39,0,*57
1511953261.7,39530,5.56,72246.8,-6.51,-30.67,-29.35,0,*51
1511953262.95,39531,5.56,72242.8,-6.47,-30.61,-29.29,0,*5C
1511953264.16,39532,5.56,72240.8,-6.47,-30.83,-29.67,0,*59
1511953265.41,39533,5.56,72238.5,-6.47,-30.73,-29.39,0,*5C
1511953266.66,39534,5.56,72250.5,-6.51,-30.51,-29.29,0,*5D
1511953267.91,39535,5.56,72250.3,-6.51,-30.17,-28.79,0,*5A
1511953269.18,39536,5.56,72250.3,-6.53,-29.89,-28.37,0,*5E
1511953270.41,39537,5.56,72248.8,-6.53,-29.79,-28.31,0,*56
1511953271.67,39538,5.56,72250.8,-6.53,-29.95,-28.59,0,*55
1511953272.94,39539,5.56,72248.3,-6.53,-29.89,-28.31,0,*57
1511953274.2,39540,5.56,72250.0,-6.53,-29.79,-28.21,0,*57
1511953275.43,39541,5.56,72248.3,-6.53,-29.79,-28.37,0,*51
1511953276.68,39542,5.56,72248.0,-6.55,-29.89,-28.31,0,*5D
1511953277.92,39543,5.56,72242.3,-6.55,-29.79,-28.21,0,*52
1511953279.16,39544,5.56,72242.0,-6.55,-29.79,-28.21,0,*55
1511953280.38,39545,5.56,72240.5,-6.55,-29.95,-28.37,0,*51
1511953281.64,39546,5.56,72238.3,-6.55,-29.73,-28.21,0,*5D
1511953282.88,39547,5.56,72240.3,-6.57,-29.23,-27.71,0,*51
1511953284.12,39548,5.56,72244.0,-6.59,-28.97,-27.35,0,*5E
1511953285.38,39549,5.56,72244.0,-6.57,-28.97,-27.35,0,*51
1511953286.68,39550,5.56,72244.5,-6.57,-28.91,-27.19,0,*51
1511953287.96,39551,5.56,72248.8,-6.57,-28.79,-27.19,0,*56
1511953289.23,39552,5.56,72254.5,-6.57,-28.91,-27.07,0,*5C
1511953290.47,39553,5.56,72252.3,-6.55,-28.91,-27.13,0,*5A
1511953291.74,39554,5.56,72254.3,-6.57,-28.75,-26.87,0,*59
1511953293.0,39555,5.56,72256.3,-6.57,-28.53,-26.71,0,*55
1511953294.29,39556,5.56,72258.3,-6.57,-28.09,-26.17,0,*59
1511953295.55,39557,5.56,72258.0,-6.57,-28.05,-26.23,0,*53
1511953296.79,39558,5.56,72256.8,-6.57,-27.89,-25.91,0,*5D
1511953298.01,39559,5.56,72252.0,-6.59,-27.55,-25.61,0,*5C
1511953299.27,39560,5.56,72254.8,-6.57,-27.51,-25.45,0,*5A
1511953300.51,39561,5.63,72256.5,-6.59,-27.55,-25.71,0,*56
1511953301.78,39562,5.56,72252.5,-6.57,-27.55,-25.71,0,*5B
1511953302.99,39563,5.56,72248.5,-6.55,-27.03,-25.19,0,*55
1511953304.26,39564,5.56,72246.5,-6.57,-26.93,-25.09,0,*59
1511953305.52,39565,5.56,72246.3,-6.57,-26.61,-25.03,0,*5F
1511953306.82,39566,5.56,72244.0,-6.57,-26.33,-24.87,0,*56
1511953308.03,39567,5.56,72250.8,-6.55,-26.39,-24.97,0,*5E
1511953309.29,39568,5.56,72248.8,-6.55,-26.13,-25.03,0,*55
1511953310.55,39569,5.56,72254.8,-6.55,-25.97,-25.03,0,*5B
1511953311.82,39570,5.56,72252.5,-6.55,-25.55,-24.71,0,*59
1511953313.06,39571,5.56,72254.8,-6.55,-25.39,-24.83,0,*5F
1511953314.29,39572,5.56,72254.8,-6.55,-24.87,-24.51,0,*57
1511953315.53,39573,5.56,72246.0,-6.55,-24.83,-24.57,0,*54
1511953316.77,39574,5.56,72242.5,-6.55,-24.51,-24.41,0,*5B
1511953317.98,39575,5.56,72242.8,-6.55,-24.31,-24.35,0,*5F
1511953319.27,39576,5.56,72238.8,-6.53,-23.99,-24.21,0,*5A
1511953320.53,39577,5.56,72234.0,-6.53,-23.89,-24.21,0,*5A
1511953321.78,39578,5.56,72234.5,-6.53,-23.69,-24.05,0,*5D
1511953323.04,39579,5.56,72230.5,-6.47,-23.65,-23.95,0,*5B
1511953324.29,39580,5.56,72238.3,-6.51,-23.23,-23.69,0,*5B
1511953325.52,39581,5.56,72238.8,-6.51,-23.03,-23.39,0,*5D
1511953326.75,39582,5.56,72240.5,-6.51,-22.83,-23.19,0,*55
1511953327.97,39583,5.56,72246.5,-6.47,-22.53,-22.97,0,*59
1511953329.24,39584,5.56,72242.5,-6.47,-22.17,-22.47,0,*53
1511953330.52,39585,5.56,72240.8,-6.45,-21.97,-22.21,0,*5B
1511953331.8,39586,5.56,72242.5,-6.45,-21.67,-21.67,0,*56
1511953333.03,39587,5.56,72236.3,-6.43,-21.57,-21.73,0,*57
1511953334.29,39588,5.56,72236.8,-6.43,-21.83,-21.83,0,*5E
1511953335.49,39589,5.56,72242.5,-6.39,-21.47,-21.47,0,*52
1511953336.73,39590,5.56,72240.5,-6.39,-21.17,-21.33,0,*5C
1511953337.96,39591,5.56,72238.8,-6.39,-21.03,-21.17,0,*5E
1511953339.2,39592,5.56,72240.8,-6.39,-20.89,-20.99,0,*59
1511953340.45,39593,5.56,72242.5,-6.37,-20.83,-21.13,0,*5F
1511953341.68,39594,5.56,72242.8,-6.37,-20.63,-21.13,0,*56
1511953342.89,39595,5.56,72238.0,-6.35,-20.05,-20.73,0,*52
1511953344.1,39596,5.56,72236.3,-6.31,-19.95,-20.59,0,*5E
1511953345.37,39597,5.56,72232.8,-6.33,-19.57,-20.43,0,*58
1511953346.64,39598,5.56,72228.5,-6.33,-19.27,-20.29,0,*5C
1511953347.89,39599,5.56,72228.8,-6.29,-19.03,-20.15,0,*5F
1511953349.16,39600,5.56,72230.3,-6.29,-18.89,-20.15,0,*5F
1511953350.39,39601,5.56,72232.5,-6.29,-18.83,-20.25,0,*57
1511953351.63,39602,5.56,72232.8,-6.25,-18.49,-20.19,0,*51
1511953352.86,39603,5.56,72240.5,-6.23,-18.25,-20.05,0,*51
1511953354.1,39604,5.56,72248.3,-6.21,-17.93,-19.99,0,*59
1511953355.35,39605,5.56,72252.8,-6.21,-18.01,-20.15,0,*52
1511953356.62,39606,5.56,72252.8,-6.19,-17.93,-20.29,0,*51
1511953357.83,39607,5.56,72250.8,-6.17,-18.17,-20.59,0,*5A
1511953359.04,39608,5.56,72244.8,-6.17,-18.25,-20.73,0,*5C
1511953360.26,39609,5.56,72240.8,-6.17,-18.41,-20.93,0,*51
1511953361.49,39610,5.56,72242.5,-6.17,-18.55,-21.17,0,*51
1511953362.74,39611,5.56,72242.3,-6.13,-19.27,-21.93,0,*5C
1511953363.98,39612,5.56,72244.8,-6.13,-19.31,-21.93,0,*58
1511953365.22,39613,5.63,72246.0,-6.13,-19.57,-22.11,0,*50
1511953366.44,39614,5.56,72238.5,-6.13,-19.91,-22.53,0,*5B
1511953367.68,39615,5.56,72246.3,-6.13,-19.57,-21.93,0,*5F
1511953368.89,39616,5.56,72240.5,-6.13,-19.75,-22.37,0,*51
1511953370.1,39617,5.56,72232.8,-6.17,-19.95,-22.57,0,*5C
1511953371.33,39618,5.56,72226.0,-6.17,-19.99,-22.73,0,*59
1511953372.56,39619,5.56,72228.8,-6.17,-19.95,-22.73,0,*54
1511953373.79,39620,5.56,72228.5,-6.17,-20.15,-22.83,0,*53
1511953375.04,39621,5.56,72228.5,-6.19,-20.43,-22.97,0,*5A
1511953376.3,39622,5.56,72228.0,-6.19,-20.49,-22.97,0,*53
1511953377.54,39623,5.56,72230.0,-6.19,-20.63,-22.87,0,*5B
1511953378.78,39624,5.56,72228.8,-6.19,-20.73,-22.83,0,*59
1511953380.04,39625,5.56,72224.0,-6.19,-21.23,-22.97,0,*59
1511953381.26,39626,5.56,72226.5,-6.17,-21.17,-22.63,0,*58
1511953382.52,39627,5.63,72230.3,-6.17,-21.23,-22.47,0,*58
1511953383.81,39628,5.56,72220.8,-6.19,-21.83,-22.77,0,*50
1511953385.08,39629,5.56,72220.0,-6.19,-22.31,-22.83,0,*50
1511953386.31,39630,5.56,72224.0,-6.19,-22.63,-22.83,0,*5F
1511953387.54,39631,5.56,72226.0,-6.19,-22.63,-22.67,0,*54
1511953388.81,39632,5.56,72236.3,-6.19,-22.97,-22.77,0,*5D
1511953390.05,39633,5.56,72238.5,-6.19,-22.97,-22.53,0,*5A
1511953391.29,39634,5.56,72232.5,-6.21,-23.03,-22.37,0,*58
1511953392.52,39635,5.56,72234.5,-6.21,-23.79,-22.77,0,*50
1511953393.76,39636,5.56,72238.5,-6.21,-23.79,-22.77,0,*53
1511953395.04,39637,5.56,72244.3,-6.23,-23.95,-22.73,0,*56
1511953396.25,39638,5.56,72246.5,-6.21,-23.79,-22.41,0,*58
1511953397.51,39639,5.56,72244.8,-6.23,-23.99,-22.57,0,*52
1511953398.77,39640,5.56,72242.5,-6.23,-23.95,-22.27,0,*57
1511953399.98,39641,5.56,72238.0,-6.21,-23.43,-21.73,0,*5D
1511953401.21,39642,5.56,72240.3,-6.21,-23.85,-22.07,0,*54
1511953402.47,39643,5.56,72236.5,-6.21,-23.99,-22.21,0,*5C
1511953403.71,39644,5.56,72238.5,-6.23,-23.79,-21.93,0,*5D
1511953405.0,39645,5.56,72234.0,-6.23,-23.95,-21.97,0,*5A
1511953406.26,39646,5.56,72226.5,-6.23,-24.15,-22.27,0,*5E
1511953407.5,39647,5.56,72218.8,-6.23,-24.31,-22.53,0,*5A
1511953408.73,39648,5.56,72218.5,-6.29,-24.35,-22.57,0,*5F
1511953409.95,39649,5.56,72216.0,-6.25,-24.05,-22.37,0,*57
1511953411.18,39650,5.56,72212.3,-6.25,-23.85,-22.11,0,*54
1511953412.43,39651,5.56,72222.8,-6.29,-23.69,-22.03,0,*58
1511953413.67,39652,5.56,72220.5,-6.25,-23.65,-21.93,0,*51
1511953414.9,39653,5.56,72218.3,-6.25,-23.23,-21.63,0,*5D
1511953416.18,39654,5.56,72222.0,-6.29,-23.29,-21.83,0,*52
1511953417.46,39655,5.56,72236.0,-6.29,-23.29,-21.83,0,*53
1511953418.69,39656,5.56,72238.3,-6.25,-22.87,-21.57,0,*50
1511953419.97,39657,5.56,72240.3,-6.29,-22.77,-21.23,0,*51
1511953421.22,39658,5.56,72234.3,-6.29,-22.73,-21.13,0,*59
1511953422.49,39659,5.56,72232.0,-6.29,-22.57,-21.23,0,*5D
1511953423.71,39660,5.56,72236.3,-6.25,-22.57,-21.13,0,*58
1511953424.99,39661,5.56,72236.5,-6.29,-22.47,-21.03,0,*55
1511953426.23,39662,5.56,72240.0,-6.25,-22.37,-20.99,0,*5F
1511953427.47,39663,5.56,72232.5,-6.25,-22.53,-21.03,0,*5E
1511953428.69,39664,5.56,72222.3,-6.25,-22.57,-21.13,0,*5C
1511953429.9,39665,5.56,72228.0,-6.25,-22.53,-21.13,0,*59
1511953431.15,39666,5.56,72236.5,-6.25,-22.53,-21.03,0,*5B
1511953432.36,39667,5.56,72240.3,-6.25,-22.67,-21.13,0,*5C
1511953433.57,39668,5.63,72236.3,-6.25,-22.67,-21.17,0,*57
1511953434.8,39669,5.56,72238.3,-6.25,-22.73,-21.13,0,*57
1511953436.03,39670,5.56,72238.0,-6.29,-22.63,-21.17,0,*56
1511953437.24,39671,5.56,72234.3,-6.25,-22.67,-21.17,0,*5F
1511953438.49,39672,5.56,72230.5,-6.25,-22.57,-20.99,0,*58
1511953439.74,39673,5.56,72232.0,-6.29,-22.63,-21.03,0,*50
1511953440.95,39674,5.56,72228.0,-6.25,-22.37,-20.69,0,*57
1511953442.17,39675,5.56,72230.8,-6.25,-22.53,-20.69,0,*54
1511953443.4,39676,5.56,72234.3,-6.25,-22.41,-20.79,0,*55
1511953444.68,39677,5.63,72240.3,-6.29,-22.73,-21.03,0,*55
1511953445.96,39678,5.56,72232.8,-6.29,-22.77,-21.03,0,*5E
1511953447.2,39679,5.63,72226.8,-6.25,-22.67,-20.99,0,*50
1511953448.43,39680,5.56,72222.5,-6.29,-22.87,-20.89,0,*55
1511953449.67,39681,5.56,72218.8,-6.29,-22.87,-20.89,0,*54
1511953450.92,39682,5.56,72224.0,-6.29,-22.73,-20.69,0,*52
1511953452.18,39683,5.56,72222.8,-6.29,-22.31,-20.25,0,*5D
1511953453.44,39684,5.56,72222.0,-6.29,-22.47,-20.25,0,*5B
1511953454.69,39685,5.56,72224.5,-6.29,-22.41,-20.15,0,*5F
1511953455.93,39686,5.56,72228.5,-6.29,-22.57,-20.39,0,*55
1511953457.16,39687,5.63,72224.5,-6.29,-22.63,-20.43,0,*5E
1511953458.38,39688,5.56,72228.5,-6.29,-22.63,-20.29,0,*5D
1511953459.61,39689,5.56,72228.0,-6.29,-22.41,-20.09,0,*5E
1511953460.82,39690,5.56,72226.5,-6.31,-22.57,-20.29,0,*5A
1511953462.03,39691,5.63,72226.5,-6.31,-22.63,-20.39,0,*5D
1511953463.24,39692,5.56,72224.8,-6.31,-22.57,-20.09,0,*5A
1511953464.44,39693,5.56,72228.0,-6.31,-22.41,-19.99,0,*5F
1511953465.65,39694,5.56,72238.8,-6.31,-22.27,-19.91,0,*50
1511953466.86,39695,5.56,72230.8,-6.31,-22.57,-20.09,0,*5D
1511953468.1,39696,5.63,72230.8,-6.31,-22.97,-20.53,0,*5D
1511953469.34,39697,5.56,72230.0,-6.33,-22.93,-20.25,0,*5B
1511953470.59,39698,5.56,72228.8,-6.31,-22.77,-20.15,0,*5F
1511953471.82,39699,5.56,72228.8,-6.33,-22.83,-20.29,0,*58
1511953473.04,39700,5.63,72234.0,-6.35,-22.53,-19.99,0,*53
1511953474.3,39701,5.56,72234.5,-6.35,-22.21,-19.57,0,*55
1511953475.53,39702,5.56,72236.0,-6.35,-21.97,-19.37,0,*5E
1511953476.74,39703,5.56,72242.8,-6.35,-22.03,-19.37,0,*51
1511953477.99,39704,5.56,72240.3,-6.37,-22.03,-19.31,0,*52
1511953479.24,39705,5.63,72244.0,-6.35,-21.83,-19.23,0,*59
1511953480.5,39706,5.63,72244.8,-6.35,-21.87,-19.23,0,*5E
1511953481.73,39707,5.56,72244.8,-6.35,-21.87,-19.07,0,*59
1511953482.97,39708,5.56,72244.3,-6.35,-21.67,-18.73,0,*5A
1511953484.19,39709,5.56,72246.5,-6.35,-21.73,-18.89,0,*5B
1511953485.43,39710,5.56,72246.5,-6.35,-21.57,-18.65,0,*57
1511953486.71,39711,5.63,72250.3,-6.37,-21.27,-18.35,0,*56
1511953487.97,39712,5.63,72248.0,-6.35,-21.23,-18.35,0,*53
1511953489.23,39713,5.56,72244.5,-6.35,-21.27,-18.31,0,*52
1511953490.47,39714,5.56,72240.8,-6.35,-21.23,-18.21,0,*50
1511953491.7,39715,5.56,72244.8,-6.31,-21.23,-18.11,0,*56
1511953492.99,39716,5.63,72250.3,-6.33,-20.99,-17.97,0,*56
1511953494.2,39717,5.63,72244.8,-6.35,-21.13,-18.07,0,*54
1511953495.48,39718,5.56,72242.5,-6.33,-21.23,-18.01,0,*58
1511953496.71,39719,5.63,72238.3,-6.33,-21.09,-17.87,0,*50
1511953497.94,39720,5.63,72240.0,-6.33,-20.93,-17.69,0,*58
1511953499.2,39721,5.63,72238.5,-6.33,-20.99,-17.69,0,*53
1511953500.44,39722,5.63,72240.3,-6.33,-21.13,-17.83,0,*57
1511953501.66,39723,5.56,72236.0,-6.33,-21.09,-17.69,0,*59
1511953502.92,39724,5.56,72246.0,-6.33,-20.63,-17.41,0,*59
1511953504.17,39725,5.63,72246.3,-6.33,-20.79,-17.31,0,*54
1511953505.45,39726,5.56,72240.0,-6.33,-20.79,-17.25,0,*52
1511953506.68,39727,5.56,72240.3,-6.33,-20.43,-16.97,0,*52
1511953507.91,39728,5.63,72248.3,-6.31,-19.99,-16.51,0,*58
1511953509.15,39729,5.56,72248.3,-6.33,-20.59,-16.97,0,*57
1511953510.38,39730,5.63,72248.8,-6.31,-20.15,-16.59,0,*57
1511953511.63,39731,5.56,72236.8,-6.33,-20.35,-16.79,0,*54
1511953512.88,39732,5.63,72240.8,-6.33,-20.49,-16.83,0,*59
1511953514.13,39733,5.63,72238.0,-6.29,-20.25,-16.51,0,*56
1511953515.35,39734,5.63,72232.3,-6.31,-20.25,-16.51,0,*58
1511953516.56,39735,5.56,72230.5,-6.31,-19.95,-16.37,0,*58
1511953517.81,39736,5.63,72234.0,-6.31,-20.19,-16.51,0,*55
1511953519.0,39737,5.56,72234.8,-6.31,-20.09,-16.45,0,*50
1511953520.22,39738,5.63,72234.5,-6.31,-20.29,-16.51,0,*58
1511953521.42,39739,5.63,72232.5,-6.31,-19.95,-16.37,0,*54
1511953522.65,39740,5.63,72236.5,-6.29,-19.75,-15.99,0,*5A
1511953523.89,39741,5.56,72234.3,-6.29,-20.09,-16.31,0,*5B
1511953525.14,39742,5.56,72236.0,-6.29,-20.15,-16.37,0,*53
1511953526.4,39743,5.56,72238.0,-6.29,-19.95,-16.09,0,*5D
1511953527.64,39744,5.63,72246.3,-6.29,-19.81,-16.03,0,*55
1511953528.88,39745,5.56,72240.8,-6.29,-19.81,-16.03,0,*54
1511953530.11,39746,5.63,72246.5,-6.29,-19.91,-16.03,0,*56
1511953531.39,39747,5.63,72236.8,-6.29,-19.65,-15.89,0,*5D
1511953532.63,39748,5.56,72238.0,-6.29,-19.51,-15.71,0,*52
1511953533.84,39749,5.56,72242.0,-6.25,-19.47,-15.71,0,*58
1511953535.12,39750,5.63,72244.0,-6.29,-19.65,-15.89,0,*5B
1511953536.38,39751,5.63,72236.3,-6.29,-19.37,-15.57,0,*5E
1511953537.63,39752,5.56,72236.3,-6.25,-19.41,-15.53,0,*54
1511953538.86,39753,5.63,72244.0,-6.29,-19.37,-15.63,0,*5B
1511953540.07,39754,5.56,72238.3,-6.25,-19.75,-15.95,0,*5F
1511953541.33,39755,5.56,72244.0,-6.29,-19.61,-15.75,0,*59
1511953542.55,39756,5.63,72244.5,-6.25,-19.47,-15.71,0,*56
1511953543.8,39757,5.63,72240.5,-6.25,-19.17,-15.39,0,*5E
1511953545.06,39758,5.63,72242.3,-6.29,-19.17,-15.43,0,*50
1511953546.28,39759,5.63,72250.0,-6.25,-18.99,-15.15,0,*59
1511953547.51,39760,5.63,72246.0,-6.25,-19.13,-15.29,0,*5F
1511953548.77,39761,5.56,72240.8,-6.25,-19.31,-15.57,0,*57
1511953550.02,39762,5.63,72246.0,-6.21,-19.27,-15.53,0,*53
1511953551.25,39763,5.63,72246.5,-6.29,-19.47,-15.63,0,*5F
1511953552.49,39764,5.63,72236.8,-6.29,-19.37,-15.63,0,*5F
1511953553.75,39765,5.63,72246.5,-6.29,-19.23,-15.49,0,*53
1511953555.0,39766,5.56,72242.0,-6.25,-19.13,-15.43,0,*55
1511953556.24,39767,5.63,72242.0,-6.29,-19.03,-15.29,0,*55
1511953557.49,39768,5.56,72232.8,-6.29,-19.03,-15.43,0,*56
1511953558.71,39769,5.63,72234.5,-6.25,-18.69,-15.07,0,*56
1511953559.96,39770,5.56,72238.3,-6.25,-18.93,-15.29,0,*57
1511953561.23,39771,5.63,72254.5,-6.25,-18.93,-15.43,0,*5A
1511953562.48,39772,5.56,72224.5,-6.25,-18.93,-15.29,0,*55
1511953563.72,39773,5.56,72228.3,-6.29,-18.99,-15.29,0,*52
1511953564.99,39774,5.63,72246.3,-6.29,-18.89,-15.35,0,*59
1511953566.22,39775,5.63,72250.5,-6.29,-18.73,-15.11,0,*5B
1511953567.46,39776,5.63,72238.0,-6.29,-18.69,-15.15,0,*57
1511953568.71,39777,5.63,72242.8,-6.29,-18.59,-15.15,0,*55
1511953569.96,39778,5.63,72244.5,-6.29,-18.45,-14.97,0,*5C
1511953571.24,39779,5.63,72244.5,-6.29,-18.89,-15.35,0,*54
1511953572.47,39780,5.63,72240.0,-6.29,-18.69,-15.15,0,*5E
1511953573.73,39781,5.63,72252.0,-6.29,-18.45,-14.97,0,*5A
1511953574.98,39782,5.56,72252.3,-6.29,-18.55,-15.11,0,*57
1511953576.23,39783,5.63,72260.0,-6.29,-18.25,-14.75,0,*52
1511953577.52,39784,5.63,72254.8,-6.29,-18.31,-14.97,0,*5C
1511953578.77,39785,5.63,72244.3,-6.29,-18.01,-14.61,0,*57
1511953580.02,39786,5.63,72246.3,-6.29,-18.01,-14.69,0,*5C
1511953581.27,39787,5.63,72248.8,-6.29,-17.93,-14.69,0,*59
1511953582.55,39788,5.63,72250.8,-6.29,-18.01,-14.75,0,*5F
1511953583.79,39789,5.63,72246.5,-6.25,-18.21,-14.93,0,*58
1511953585.06,39790,5.63,72250.0,-6.29,-18.01,-14.75,0,*56
1511953586.31,39791,5.56,72254.3,-6.29,-18.11,-14.75,0,*56
1511953587.55,39792,5.63,72256.0,-6.25,-18.21,-14.97,0,*56
1511953588.79,39793,5.63,72250.8,-6.25,-18.21,-14.93,0,*53
1511953590.0,39794,5.56,72244.8,-6.25,-18.21,-15.07,0,*58
1511953591.24,39795,5.63,72244.0,-6.25,-18.25,-14.97,0,*55
1511953592.52,39796,5.63,72248.3,-6.29,-18.01,-14.75,0,*50
1511953593.73,39797,5.63,72248.0,-6.25,-17.87,-14.69,0,*51
1511953595.0,39798,5.63,72238.8,-6.29,-17.93,-14.75,0,*5A
1511953596.28,39799,5.63,72228.8,-6.29,-17.93,-14.75,0,*5B
1511953597.49,39800,5.63,72226.5,-6.25,-17.87,-14.69,0,*50
1511953598.7,39801,5.63,72228.3,-6.25,-17.73,-14.65,0,*56
1511953599.99,39802,5.56,72230.0,-6.29,-17.97,-14.83,0,*5B
1511953601.23,39803,5.56,72236.8,-6.29,-17.79,-14.69,0,*5E
1511953602.44,39804,5.56,72240.8,-6.25,-17.69,-14.69,0,*54
1511953603.67,39805,5.63,72230.3,-6.29,-17.69,-14.65,0,*55
1511953604.93,39806,5.63,72228.8,-6.29,-17.49,-14.47,0,*54
1511953606.14,39807,5.63,72232.8,-6.25,-17.49,-14.65,0,*59
1511953607.39,39808,5.63,72228.8,-6.29,-17.55,-14.69,0,*5B
1511953608.65,39809,5.63,72230.3,-6.25,-17.59,-14.55,0,*55
1511953609.88,39810,5.63,72228.5,-6.29,-17.49,-14.61,0,*57
1511953611.14,39811,5.63,72222.8,-6.29,-17.35,-14.47,0,*59
1511953612.43,39812,5.63,72212.3,-6.29,-17.25,-14.47,0,*5B
1511953613.66,39813,5.63,72224.3,-6.29,-17.35,-14.61,0,*5F
1511953614.91,39814,5.63,72220.0,-6.29,-17.35,-14.55,0,*5F
1511953616.2,39815,5.63,72220.3,-6.29,-17.25,-14.47,0,*5C
1511953617.45,39816,5.63,72220.0,-6.29,-17.03,-14.29,0,*53
1511953618.7,39817,5.63,72222.8,-6.29,-17.11,-14.33,0,*5A
1511953619.96,39818,5.56,72224.5,-6.29,-16.79,-13.97,0,*53
1511953621.24,39819,5.63,72230.5,-6.29,-16.65,-13.97,0,*5F
1511953622.48,39820,5.63,72234.0,-6.25,-16.59,-13.97,0,*56
1511953623.69,39821,5.63,72232.8,-6.25,-16.59,-14.11,0,*5E
1511953624.95,39822,5.63,72236.0,-6.25,-16.31,-13.83,0,*5F
1511953626.18,39823,5.63,72236.0,-6.25,-16.27,-13.93,0,*58
1511953627.44,39824,5.63,72242.3,-6.23,-16.41,-14.05,0,*51
1511953628.7,39825,5.63,72240.8,-6.23,-16.13,-13.93,0,*5F
1511953629.91,39826,5.63,72242.5,-6.21,-15.75,-13.51,0,*53
1511953631.13,39827,5.63,72244.5,-6.21,-15.95,-13.79,0,*56
1511953632.39,39828,5.63,72248.3,-6.21,-16.23,-14.01,0,*5F
1511953633.63,39829,5.63,72248.3,-6.21,-15.89,-13.73,0,*5F
1511953634.86,39830,5.63,72250.3,-6.21,-15.63,-13.61,0,*50
1511953636.06,39831,5.63,72248.3,-6.21,-15.67,-13.51,0,*56
1511953637.32,39832,5.63,72254.3,-6.17,-15.43,-13.33,0,*52
1511953638.56,39833,5.63,72254.3,-6.19,-15.53,-13.51,0,*58
1511953639.82,39834,5.63,72252.8,-6.17,-15.43,-13.33,0,*54
1511953641.08,39835,5.63,72250.8,-6.19,-15.49,-13.37,0,*55
1511953642.31,39836,5.63,72250.0,-6.17,-15.29,-13.29,0,*51
1511953643.54,39837,5.63,72262.0,-6.13,-14.97,-13.15,0,*5F
1511953644.75,39838,5.63,72258.3,-6.13,-15.15,-13.23,0,*5E
1511953645.98,39839,5.63,72252.0,-6.13,-15.25,-13.37,0,*59
1511953647.23,39840,5.63,72252.0,-6.13,-15.01,-13.29,0,*5E
1511953648.47,39841,5.63,72252.5,-6.11,-15.15,-13.51,0,*57
1511953649.7,39842,5.63,72252.3,-6.11,-15.11,-13.51,0,*50
1511953650.95,39843,5.63,72248.8,-6.11,-14.93,-13.43,0,*59
1511953652.18,39844,5.63,72246.8,-6.09,-14.65,-13.33,0,*59
1511953653.38,39845,5.63,72248.3,-6.09,-14.65,-13.23,0,*59
1511953654.64,39846,5.63,72246.0,-6.07,-14.61,-13.37,0,*55
1511953655.84,39847,5.63,72244.3,-6.05,-14.89,-13.73,0,*50
1511953657.11,39848,5.63,72240.3,-6.07,-14.97,-13.87,0,*59
1511953658.34,39849,5.63,72238.0,-6.07,-15.07,-13.93,0,*55
1511953659.62,39850,5.63,72238.0,-6.07,-14.93,-14.01,0,*5D
1511953660.88,39851,5.63,72228.5,-6.05,-14.83,-13.87,0,*56
1511953662.11,39852,5.63,72228.0,-6.05,-14.89,-14.01,0,*56
1511953663.31,39853,5.63,72234.3,-6.05,-15.07,-14.19,0,*59
1511953664.52,39854,5.63,72236.8,-6.05,-15.07,-14.29,0,*5D
1511953665.76,39855,5.63,72236.8,-6.05,-15.21,-14.43,0,*54
1511953667.02,39856,5.56,72228.3,-6.07,-15.53,-14.79,0,*59
1511953668.26,39857,5.63,72232.8,-6.05,-15.75,-14.93,0,*5A
1511953669.52,39858,5.63,72238.3,-6.07,-15.85,-15.07,0,*54
1511953670.81,39859,5.63,72234.5,-6.07,-15.81,-14.97,0,*59
1511953672.02,39860,5.63,72236.5,-6.09,-15.75,-14.89,0,*59
1511953673.23,39861,5.63,72244.0,-6.09,-15.49,-14.61,0,*51
1511953674.5,39862,5.63,72236.3,-6.07,-16.09,-15.25,0,*5A
1511953675.74,39863,5.63,72238.0,-6.09,-16.23,-15.25,0,*5D
1511953677.02,39864,5.63,72246.8,-6.11,-15.81,-14.93,0,*54
1511953678.31,39865,5.63,72238.3,-6.11,-15.85,-15.01,0,*5B
1511953679.54,39866,5.63,72234.5,-6.09,-15.95,-15.21,0,*52
1511953680.78,39867,5.63,72230.5,-6.11,-16.03,-15.15,0,*51
1511953682.02,39868,5.63,72222.8,-6.11,-16.03,-15.15,0,*5E
1511953683.31,39869,5.63,72224.8,-6.11,-16.13,-15.39,0,*50
1511953684.52,39870,5.63,72236.5,-6.13,-16.03,-15.15,0,*55
1511953685.74,39871,5.63,72236.5,-6.13,-16.03,-15.29,0,*5B
1511953686.98,39872,5.63,72242.5,-6.13,-15.71,-14.93,0,*5E
1511953688.21,39873,5.63,72242.0,-6.13,-15.81,-15.11,0,*5B
1511953689.45,39874,5.63,72242.0,-6.13,-15.85,-15.11,0,*58
1511953690.69,39875,5.63,72242.8,-6.13,-15.85,-15.25,0,*5E
1511953691.93,39876,5.63,72246.0,-6.13,-15.81,-15.15,0,*5A
1511953693.17,39877,5.63,72246.8,-6.13,-15.81,-15.29,0,*54
1511953694.41,39878,5.63,72244.8,-6.13,-15.53,-15.01,0,*5E
1511953695.63,39879,5.63,72242.8,-6.13,-15.71,-15.29,0,*55
1511953696.85,39880,5.63,72234.0,-6.13,-15.67,-15.25,0,*58
1511953698.11,39881,5.63,72232.3,-6.17,-15.85,-15.43,0,*51
1511953699.35,39882,5.63,72232.0,-6.17,-16.03,-15.57,0,*5A
1511953700.61,39883,5.63,72240.5,-6.19,-15.81,-15.49,0,*53
1511953701.89,39884,5.63,72242.5,-6.19,-15.89,-15.53,0,*57
1511953703.13,39885,5.63,72246.5,-6.19,-15.75,-15.53,0,*55
1511953704.4,39886,5.63,72244.5,-6.19,-15.63,-15.39,0,*5D
1511953705.66,39887,5.63,72246.5,-6.19,-15.49,-15.35,0,*58